EN

Hourly Weather La Esperanza

Today, 21 October, Wednesday

Time Temperature Precipitation Wind Pressure Humidity
00:00 +14°C° 0 mm 0 mps 615 mmHg 96%
01:00 +15°C° 0.1 mm 1 mps 614 mmHg 96%
02:00 +15°C° 0.1 mm 1 mps 614 mmHg 96%
03:00 +14°C° 0.1 mm 1 mps 614 mmHg 97%
04:00 +14°C° 0 mm 1 mps 614 mmHg 97%
05:00 +14°C° 0 mm 1 mps 614 mmHg 97%
06:00 +14°C° 0 mm 1 mps 615 mmHg 97%
07:00 +16°C° 0 mm 1 mps 616 mmHg 91%
08:00 +19°C° 0 mm 1 mps 617 mmHg 85%
09:00 +20°C° 0 mm 1 mps 617 mmHg 79%
10:00 +21°C° 0.2 mm 1 mps 617 mmHg 75%
11:00 +22°C° 0.2 mm 1 mps 617 mmHg 71%
12:00 +23°C° 0.2 mm 1 mps 617 mmHg 67%
13:00 +23°C° 1.5 mm 1 mps 617 mmHg 72%
14:00 +22°C° 1.5 mm 1 mps 616 mmHg 76%
15:00 +21°C° 1.5 mm 1 mps 615 mmHg 81%
16:00 +18°C° 1.7 mm 0 mps 615 mmHg 86%
17:00 +17°C° 1.7 mm 0 mps 615 mmHg 91%
18:00 +15°C° 1.7 mm 0 mps 614 mmHg 96%
19:00 +15°C° 1.8 mm 0 mps 615 mmHg 96%
20:00 +15°C° 1.8 mm 0 mps 616 mmHg 96%
21:00 +15°C° 1.8 mm 0 mps 616 mmHg 97%
22:00 +15°C° 1.7 mm 0 mps 616 mmHg 97%
23:00 +15°C° 1.7 mm 0 mps 616 mmHg 97%

Tomorrow, 22 October, Thursday

Time Temperature Precipitation Wind Pressure Humidity
00:00 +16°C° 1.7 mm 1 mps 615 mmHg 98%
01:00 +15°C° 0.4 mm 1 mps 615 mmHg 97%
02:00 +15°C° 0.4 mm 1 mps 615 mmHg 96%
03:00 +15°C° 0.4 mm 1 mps 614 mmHg 95%
04:00 +14°C° 0 mm 1 mps 614 mmHg 95%
05:00 +14°C° 0 mm 1 mps 614 mmHg 95%
06:00 +14°C° 0 mm 1 mps 614 mmHg 94%
07:00 +16°C° 0 mm 1 mps 616 mmHg 86%
08:00 +17°C° 0 mm 0 mps 617 mmHg 78%
09:00 +20°C° 0 mm 0 mps 618 mmHg 70%
10:00 +22°C° 0.1 mm 1 mps 618 mmHg 68%
11:00 +23°C° 0.1 mm 1 mps 618 mmHg 66%
12:00 +24°C° 0.1 mm 1 mps 618 mmHg 64%
13:00 +23°C° 1.3 mm 1 mps 617 mmHg 69%
14:00 +22°C° 1.3 mm 1 mps 616 mmHg 75%
15:00 +22°C° 1.3 mm 1 mps 616 mmHg 80%
16:00 +18°C° 1.7 mm 0 mps 615 mmHg 85%
17:00 +17°C° 1.7 mm 0 mps 615 mmHg 90%
18:00 +16°C° 1.7 mm 0 mps 615 mmHg 95%
19:00 +16°C° 2.6 mm 0 mps 615 mmHg 96%
20:00 +15°C° 2.6 mm 0 mps 616 mmHg 97%
21:00 +15°C° 2.6 mm 0 mps 616 mmHg 98%
22:00 +15°C° 6.3 mm 0 mps 616 mmHg 98%
23:00 +15°C° 6.3 mm 0 mps 616 mmHg 98%

Day after tomorrow, 23 October, Friday

Time Temperature Precipitation Wind Pressure Humidity
00:00 +15°C° 6.3 mm 0 mps 616 mmHg 98%
01:00 +15°C° 6.5 mm 0 mps 616 mmHg 98%
02:00 +15°C° 6.5 mm 1 mps 615 mmHg 97%
03:00 +15°C° 6.5 mm 1 mps 615 mmHg 97%
04:00 +15°C° 0.8 mm 1 mps 615 mmHg 97%
05:00 +15°C° 0.8 mm 1 mps 615 mmHg 96%
06:00 +14°C° 0.8 mm 1 mps 615 mmHg 95%
07:00 +15°C° 0.1 mm 1 mps 616 mmHg 93%
08:00 +15°C° 0.1 mm 0 mps 617 mmHg 92%
09:00 +16°C° 0.1 mm 0 mps 617 mmHg 90%
10:00 +17°C° 0 mm 0 mps 618 mmHg 83%
11:00 +20°C° 0 mm 1 mps 618 mmHg 77%
12:00 +22°C° 0 mm 1 mps 618 mmHg 70%
13:00 +21°C° 0.3 mm 1 mps 617 mmHg 74%
14:00 +21°C° 0.3 mm 1 mps 616 mmHg 79%
15:00 +20°C° 0.3 mm 1 mps 615 mmHg 83%
16:00 +17°C° 0.4 mm 0 mps 615 mmHg 87%
17:00 +16°C° 0.4 mm 0 mps 615 mmHg 91%
18:00 +15°C° 0.4 mm 0 mps 615 mmHg 96%
19:00 +15°C° 0.7 mm 0 mps 615 mmHg 96%
20:00 +14°C° 0.7 mm 0 mps 616 mmHg 96%
21:00 +14°C° 0.7 mm 0 mps 616 mmHg 96%
22:00 +14°C° 0.6 mm 0 mps 616 mmHg 96%
23:00 +14°C° 0.6 mm 0 mps 616 mmHg 96%

24 October, Saturday

Time Temperature Precipitation Wind Pressure Humidity
00:00 +14°C° 0.6 mm 0 mps 616 mmHg 95%
01:00 +14°C° 0.3 mm 0 mps 615 mmHg 95%
02:00 +14°C° 0.3 mm 0 mps 615 mmHg 95%
03:00 +14°C° 0.3 mm 0 mps 615 mmHg 95%
04:00 +14°C° 0.2 mm 0 mps 615 mmHg 95%
05:00 +14°C° 0.2 mm 0 mps 615 mmHg 95%
06:00 +14°C° 0.2 mm 0 mps 616 mmHg 95%
07:00 +15°C° 0.4 mm 0 mps 616 mmHg 93%
08:00 +16°C° 0.4 mm 0 mps 617 mmHg 91%
09:00 +18°C° 0.4 mm 0 mps 618 mmHg 89%
10:00 +18°C° 0.8 mm 0 mps 618 mmHg 87%
11:00 +21°C° 0.8 mm 1 mps 617 mmHg 85%
12:00 +21°C° 0.8 mm 1 mps 617 mmHg 83%
13:00 +21°C° 1.2 mm 1 mps 616 mmHg 83%
14:00 +21°C° 1.2 mm 1 mps 616 mmHg 83%
15:00 +21°C° 1.2 mm 1 mps 615 mmHg 83%
16:00 +18°C° 0.9 mm 0 mps 615 mmHg 88%
17:00 +17°C° 0.9 mm 0 mps 615 mmHg 92%
18:00 +15°C° 0.9 mm 0 mps 615 mmHg 96%
19:00 +15°C° 0.6 mm 0 mps 615 mmHg 96%
20:00 +16°C° 0.6 mm 1 mps 615 mmHg 96%
21:00 +15°C° 0.6 mm 1 mps 616 mmHg 96%
22:00 +15°C° 0.5 mm 1 mps 616 mmHg 96%
23:00 +15°C° 0.5 mm 1 mps 615 mmHg 96%

25 October, Sunday

Time Temperature Precipitation Wind Pressure Humidity
00:00 +15°C° 0.5 mm 1 mps 615 mmHg 95%
01:00 +15°C° 0.1 mm 1 mps 615 mmHg 95%
02:00 +14°C° 0.1 mm 1 mps 615 mmHg 96%
03:00 +14°C° 0.1 mm 1 mps 614 mmHg 96%
04:00 +14°C° 0 mm 1 mps 615 mmHg 96%
05:00 +14°C° 0 mm 1 mps 615 mmHg 96%
06:00 +14°C° 0 mm 1 mps 615 mmHg 97%
07:00 +16°C° 0 mm 1 mps 616 mmHg 92%
08:00 +18°C° 0 mm 1 mps 617 mmHg 87%
09:00 +20°C° 0 mm 1 mps 618 mmHg 82%
10:00 +21°C° 0.2 mm 1 mps 618 mmHg 76%
11:00 +23°C° 0.2 mm 1 mps 618 mmHg 70%
12:00 +24°C° 0.2 mm 1 mps 618 mmHg 65%
13:00 +23°C° 1.3 mm 1 mps 617 mmHg 69%
14:00 +23°C° 1.3 mm 1 mps 616 mmHg 73%
15:00 +22°C° 1.3 mm 1 mps 616 mmHg 78%
16:00 +21°C° 1.3 mm 1 mps 615 mmHg 84%
17:00 +17°C° 1.3 mm 0 mps 615 mmHg 90%
18:00 +15°C° 1.3 mm 0 mps 615 mmHg 97%
19:00 +15°C° 1.1 mm 0 mps 615 mmHg 97%
20:00 +15°C° 1.1 mm 0 mps 615 mmHg 96%
21:00 +14°C° 1.1 mm 0 mps 616 mmHg 96%
22:00 +14°C° 0.3 mm 0 mps 616 mmHg 96%
23:00 +14°C° 0.3 mm 0 mps 615 mmHg 96%

26 October, Monday

Time Temperature Precipitation Wind Pressure Humidity
00:00 +14°C° 0.3 mm 0 mps 615 mmHg 95%
01:00 +14°C° 0 mm 0 mps 615 mmHg 95%
02:00 +15°C° 0 mm 1 mps 614 mmHg 95%
03:00 +14°C° 0 mm 1 mps 614 mmHg 95%
04:00 +14°C° 0 mm 1 mps 614 mmHg 95%
05:00 +14°C° 0 mm 1 mps 614 mmHg 96%
06:00 +14°C° 0 mm 1 mps 615 mmHg 96%
07:00 +16°C° 0 mm 1 mps 616 mmHg 90%
08:00 +19°C° 0 mm 1 mps 617 mmHg 84%
09:00 +21°C° 0 mm 1 mps 618 mmHg 78%
10:00 +22°C° 0.4 mm 1 mps 618 mmHg 77%
11:00 +22°C° 0.4 mm 1 mps 617 mmHg 76%
12:00 +23°C° 0.4 mm 1 mps 617 mmHg 75%
13:00 +22°C° 1.4 mm 1 mps 616 mmHg 79%
14:00 +22°C° 1.4 mm 1 mps 616 mmHg 83%
15:00 +19°C° 1.4 mm 0 mps 615 mmHg 87%
16:00 +18°C° 1.8 mm 0 mps 615 mmHg 90%
17:00 +17°C° 1.8 mm 0 mps 615 mmHg 92%
18:00 +16°C° 1.8 mm 0 mps 615 mmHg 95%
19:00 +16°C° 2.1 mm 0 mps 615 mmHg 96%
20:00 +15°C° 2.1 mm 0 mps 615 mmHg 97%
21:00 +15°C° 2.1 mm 0 mps 616 mmHg 97%
22:00 +15°C° 1 mm 0 mps 616 mmHg 97%
23:00 +15°C° 1 mm 0 mps 616 mmHg 97%

27 October, Tuesday

Time Temperature Precipitation Wind Pressure Humidity
00:00 +15°C° 1 mm 0 mps 615 mmHg 97%
01:00 +15°C° 0.1 mm 0 mps 615 mmHg 96%
02:00 +15°C° 0.1 mm 0 mps 615 mmHg 96%
03:00 +14°C° 0.1 mm 0 mps 615 mmHg 95%
04:00 +14°C° 0 mm 0 mps 615 mmHg 95%
05:00 +14°C° 0 mm 0 mps 615 mmHg 95%
06:00 +14°C° 0 mm 0 mps 615 mmHg 95%
07:00 +16°C° 0.2 mm 0 mps 616 mmHg 91%
08:00 +17°C° 0.2 mm 0 mps 617 mmHg 87%
09:00 +21°C° 0.2 mm 1 mps 618 mmHg 83%
10:00 +21°C° 1.8 mm 1 mps 618 mmHg 85%
11:00 +22°C° 1.8 mm 1 mps 617 mmHg 86%
12:00 +22°C° 1.8 mm 1 mps 617 mmHg 87%
13:00 +22°C° 2.3 mm 1 mps 616 mmHg 87%
14:00 +21°C° 2.3 mm 1 mps 615 mmHg 88%
15:00 +19°C° 2.3 mm 0 mps 615 mmHg 89%
16:00 +18°C° 2 mm 0 mps 615 mmHg 91%
17:00 +17°C° 2 mm 0 mps 615 mmHg 93%
18:00 +16°C° 2 mm 0 mps 615 mmHg 95%
19:00 +16°C° 2.3 mm 0 mps 615 mmHg 96%
20:00 +15°C° 2.3 mm 0 mps 615 mmHg 96%
21:00 +16°C° 2.3 mm 1 mps 615 mmHg 96%
22:00 +16°C° 2 mm 1 mps 615 mmHg 97%
23:00 +15°C° 2 mm 0 mps 615 mmHg 97%
Show more

We Need Your Consent

Meteoprog and our Service Providers may store and access personal data such as cookies, device identifiers or other similar technologies on your device and process such data to personalise content and ads, as well as provide social media features and to analyse the traffic.

  • Store and/or access information on your device

    Cookies, device identifiers or other information can be stored or accessed on your device for the purposes indicated above.

  • Personalised ads and content, ad and content measurement, audience insights, and products development

    Ads and content can be personalised based on a profile. More data can be added to better personalise ads and content. Ad and content performance can be measured. Insights about the audience who saw the ads and content can be derived. Such data can be used to develop or improve user’s experience, systems and software.

By clicking ‘I Agree’ you will allow the use of indicated cookies, device identifiers, web beacons or other similar technologies. Your settings can be changed in the browser on your device.

For certain purposes, legitimate interests may be relied on, rather than consent. You can read more about this in our Privacy and Cookie Policy.